Location: Carbonear
(47.7333°N, 53.2500°W)
Time: 05:57:37
(UTC+00:00)

Oscar 11 - Pass Details

Date: 04 December 2022
Orbit: 611 x 621 km, 97.6° (Epoch: 28 January)

Event Time Altitude Azimuth Distance (km) Brightness Sun altitude
Rises 08:12:04 0° 14° (NNE) 2,889 10.6 -28.0°
Reaches altitude 10° 08:14:16 10° 16° (NNE) 1,979 9.8 -27.7°
Enters shadow 08:15:40 20° 19° (NNE) 1,422 9.0 -27.4°
